Seattle, WA
on Friday, November 30, 2012

Friday
Previous Day Next Day
Daily Summary
 ActualAverageRecord
Temperature
Mean Temperature °F / °C 42°F / 6°C  
Max Temperature 59°F / 15°C 48°F / 9°C 59°F / 15°C (2012)
Min Temperature 46°F / 8°C 37°F / 3°C 21°F / -6°C (1985)
Degree Days
Heating Degree Days 12 23  
Month to date heating degree days 534 587  
Since 1 July heating degree days 1027 1183  
Cooling Degree Days 0 0  
Month to date cooling degree days 0 0  
Year to date cooling degree days 177 189  
Growing Degree Days2 (Base °F / °C )  
Moisture
Dew Point 44°F / 7°C   
Average Humidity 75    
Maximum Humidity 93    
Minimum Humidity 57    
Precipitation
Precipitation 1.40 in / 35.56 cm 0.22 in / 5.59 cm 1.50 in / 3.81 cm (1964)
Month to date precipitation 8.28 6.57  
Year to date precipitation 41.41 32.14  
Snow
Snow 0.00 in / 0.00 cm in / cm 1.00 in / 2.54 cm (1950)
Month to date snowfall 0.0  
Since 1 July snowfall 0.0  
Snow Depth 0.00 in / 0.00 cm   
Wind
Wind Speed 10 mph / 17 km/h   
Max Wind Speed 23 mph / 37 km/h   
Max Gust Speed 30 mph / 48 km/h   
Visibility 8 miles / 12 kilometers   
Events Rain   

Key: T is trace of precipitation, MM is missing value
Source: NWS Daily Summary
Time(PST)TemperatureDew PointHumidity Pressure Visibility Wind DirectionWind SpeedGust SpeedPrecipitationEvents Conditions
12:53 AM 46.9°F / 8.3°C 41.0°F / 5.0°C 80% 29.47 in / 997.8 hPa 6.0 miles / 9.7 kilometers ESE 9.2 mph / 14.8 km/h - 0.09 in / 2.3 cm Rain Rain
1:53 AM 46.9°F / 8.3°C 42.1°F / 5.6°C 83% 29.45 in / 997.2 hPa 10.0 miles / 16.1 kilometers East 9.2 mph / 14.8 km/h - 0.14 in / 3.6 cm Rain Light Rain
2:53 AM 48.0°F / 8.9°C 42.1°F / 5.6°C 80% 29.43 in / 996.5 hPa 10.0 miles / 16.1 kilometers East 9.2 mph / 14.8 km/h - 0.00 in / 0.0 cm   Overcast
3:53 AM 46.4°F / 8.0°C 42.8°F / 6.0°C 87% 29.39 in / 995.1 hPa 7.0 miles / 11.3 kilometers East 10.4 mph / 16.7 km/h - N/A Rain Light Rain
4:53 AM 46.9°F / 8.3°C 42.1°F / 5.6°C 83% 29.42 in / 996.2 hPa 10.0 miles / 16.1 kilometers ESE 11.5 mph / 18.5 km/h - 0.00 in / 0.0 cm   Mostly Cloudy
5:53 AM 48.0°F / 8.9°C 42.1°F / 5.6°C 80% 29.39 in / 995.2 hPa 10.0 miles / 16.1 kilometers ESE 6.9 mph / 11.1 km/h - N/A   Overcast
6:53 AM 48.0°F / 8.9°C 42.1°F / 5.6°C 80% 29.40 in / 995.4 hPa 10.0 miles / 16.1 kilometers SSE 11.5 mph / 18.5 km/h - 0.01 in / 0.3 cm   Overcast
7:53 AM 51.1°F / 10.6°C 43.0°F / 6.1°C 74% 29.43 in / 996.5 hPa 10.0 miles / 16.1 kilometers South 10.4 mph / 16.7 km/h - 0.00 in / 0.0 cm   Overcast
8:53 AM 51.1°F / 10.6°C 44.1°F / 6.7°C 77% 29.44 in / 997.0 hPa 10.0 miles / 16.1 kilometers SSE 9.2 mph / 14.8 km/h - 0.00 in / 0.0 cm   Mostly Cloudy
9:53 AM 53.1°F / 11.7°C 44.1°F / 6.7°C 71% 29.44 in / 997.0 hPa 10.0 miles / 16.1 kilometers SSE 12.7 mph / 20.4 km/h - N/A   Mostly Cloudy
10:53 AM 54.0°F / 12.2°C 43.0°F / 6.1°C 66% 29.45 in / 997.2 hPa 10.0 miles / 16.1 kilometers South 11.5 mph / 18.5 km/h - 0.00 in / 0.0 cm Rain Light Rain
11:53 AM 57.0°F / 13.9°C 42.1°F / 5.6°C 57% 29.44 in / 996.8 hPa 10.0 miles / 16.1 kilometers South 16.1 mph / 25.9 km/h 27.6 mph / 44.4 km/h 0.00 in / 0.0 cm   Mostly Cloudy
12:53 PM 57.9°F / 14.4°C 42.1°F / 5.6°C 56% 29.43 in / 996.6 hPa 10.0 miles / 16.1 kilometers South 12.7 mph / 20.4 km/h 25.3 mph / 40.7 km/h N/A   Mostly Cloudy
1:53 PM 55.0°F / 12.8°C 44.1°F / 6.7°C 67% 29.45 in / 997.2 hPa 9.0 miles / 14.5 kilometers South 15.0 mph / 24.1 km/h 27.6 mph / 44.4 km/h 0.00 in / 0.0 cm Rain Light Rain
2:53 PM 54.0°F / 12.2°C 45.0°F / 7.2°C 72% 29.46 in / 997.6 hPa 9.0 miles / 14.5 kilometers South 15.0 mph / 24.1 km/h - 0.01 in / 0.3 cm Rain Light Rain
3:53 PM 51.1°F / 10.6°C 46.9°F / 8.3°C 86% 29.47 in / 998.0 hPa 7.0 miles / 11.3 kilometers SSE 8.1 mph / 13.0 km/h - 0.05 in / 1.3 cm Rain Light Rain
4:53 PM 51.1°F / 10.6°C 46.9°F / 8.3°C 86% 29.48 in / 998.1 hPa 5.0 miles / 8.0 kilometers SW 8.1 mph / 13.0 km/h - 0.10 in / 2.5 cm Rain Rain
5:19 PM 50.0°F / 10.0°C 46.4°F / 8.0°C 87% 29.46 in / 997.5 hPa 6.0 miles / 9.7 kilometers SW 11.5 mph / 18.5 km/h - 0.14 in / 3.6 cm Rain Rain
5:45 PM 50.0°F / 10.0°C 46.4°F / 8.0°C 87% 29.46 in / 997.5 hPa 5.0 miles / 8.0 kilometers South 9.2 mph / 14.8 km/h - 0.20 in / 5.1 cm Rain Rain
5:53 PM 50.0°F / 10.0°C 46.0°F / 7.8°C 86% 29.49 in / 998.4 hPa 6.0 miles / 9.7 kilometers SSW 10.4 mph / 16.7 km/h - 0.21 in / 5.3 cm Rain Light Rain
6:53 PM 48.9°F / 9.4°C 46.0°F / 7.8°C 90% 29.49 in / 998.4 hPa 6.0 miles / 9.7 kilometers SSW 6.9 mph / 11.1 km/h - 0.17 in / 4.3 cm Rain Rain
7:53 PM 48.0°F / 8.9°C 45.0°F / 7.2°C 89% 29.47 in / 998.0 hPa 6.0 miles / 9.7 kilometers SE 5.8 mph / 9.3 km/h - 0.09 in / 2.3 cm Rain Rain
8:17 PM 48.2°F / 9.0°C 44.6°F / 7.0°C 87% 29.45 in / 997.2 hPa 4.0 miles / 6.4 kilometers ESE 6.9 mph / 11.1 km/h - 0.06 in / 1.5 cm Rain Rain
8:53 PM 48.9°F / 9.4°C 46.0°F / 7.8°C 90% 29.47 in / 997.7 hPa 5.0 miles / 8.0 kilometers ESE 9.2 mph / 14.8 km/h - 0.16 in / 4.1 cm Rain Rain
9:00 PM 48.2°F / 9.0°C 46.4°F / 8.0°C 93% 29.44 in / 996.8 hPa 6.0 miles / 9.7 kilometers ESE 8.1 mph / 13.0 km/h - 0.01 in / 0.3 cm Rain Rain
9:53 PM 50.0°F / 10.0°C 46.0°F / 7.8°C 86% 29.43 in / 996.5 hPa 8.0 miles / 12.9 kilometers ESE 9.2 mph / 14.8 km/h - 0.12 in / 3.0 cm Rain Light Rain
10:44 PM 48.2°F / 9.0°C 44.6°F / 7.0°C 87% 29.42 in / 996.2 hPa 3.0 miles / 4.8 kilometers ESE 10.4 mph / 16.7 km/h - 0.12 in / 3.0 cm Rain Rain
10:53 PM 48.9°F / 9.4°C 45.0°F / 7.2°C 86% 29.44 in / 996.9 hPa 3.0 miles / 4.8 kilometers SSE 9.2 mph / 14.8 km/h - 0.15 in / 3.8 cm Rain Rain
11:53 PM 48.9°F / 9.4°C 46.0°F / 7.8°C 90% 29.44 in / 997.0 hPa 7.0 miles / 11.3 kilometers South 11.5 mph / 18.5 km/h - 0.08 in / 2.0 cm Rain Light Rain
Moon Phase
Nov. 30 Dec. 06 Dec. 13 Dec. 20 Dec. 28
Sunrise:07:35 AM (PST) Moon Rise:06:21 PM (PST)11/30
Sunset:04:20 PM (PST) Moon Set:09:10 AM (PST)11/30

Copyright © 2014 The Weather Underground, Inc.